Weather reports worldwide

Advertisment
Hereford/Credenhill, United Kingdom (3522): temperature & dewpoint: 15.02.2017 14:00:00 - 21.02.2017 14:00:00 (GMT)Hereford/Credenhill, United Kingdom (3522): temperature -20cm & temperature -100cm: 15.02.2017 14:00:00 - 21.02.2017 14:00:00 (GMT)Hereford/Credenhill, United Kingdom (3522): wind speed & gusts: 15.02.2017 14:00:00 - 21.02.2017 14:00:00 (GMT)Hereford/Credenhill, United Kingdom (3522): wind direction: 15.02.2017 14:00:00 - 21.02.2017 14:00:00 (GMT)Hereford/Credenhill, United Kingdom (3522): reduced air pressure: 15.02.2017 14:00:00 - 21.02.2017 14:00:00 (GMT)Hereford/Credenhill, United Kingdom (3522): visibility: 15.02.2017 14:00:00 - 21.02.2017 14:00:00 (GMT)Hereford/Credenhill, United Kingdom (3522): precipitation: 15.02.2017 14:00:00 - 21.02.2017 14:00:00 (GMT)
Date & Time tt [°C] td [°C] tt -20cm [°C] tt -100cm [°C] ff [km/h] ff [kn] fx [km/h] fx [kn] dd ppp [hPa] vv [km] rr [mm]
21.02.2017 14:00:00 - - - - - - - - - - - 0,0
21.02.2017 13:00:00 13,9 9,8 - - 18 10 - - W 1015,7 50 0,0
21.02.2017 12:00:00 13,5 10,1 - - 16 9 - - W 1016,4 75 0,0
21.02.2017 11:00:00 13,4 10,5 - - 9 5 - - WSW 1016,7 55 0,0
21.02.2017 10:00:00 12,5 10,0 - - 8 4 - - SW 1016,9 70 0,0
21.02.2017 09:00:00 10,8 10,2 7,7 7,2 2 1 - - E 1017,3 40 0,0
21.02.2017 08:00:00 9,9 9,3 - - 0 0 - - N 1017,5 50 0,0
21.02.2017 07:00:00 9,9 9,2 - - 2 1 - - WSW 1017,1 26 0,0
21.02.2017 06:00:00 10,1 9,3 - - 8 4 - - W 1017,2 11 0,0
21.02.2017 05:00:00 10,5 9,2 - - 8 4 - - WSW 1017,2 45 0,0
21.02.2017 04:00:00 10,4 9,3 - - 5 3 - - WSW 1017,2 55 0,0
21.02.2017 03:00:00 10,0 9,4 - - 5 3 - - SW 1017,6 30 0,0
21.02.2017 02:00:00 10,4 9,5 - - 5 3 - - SW 1018,1 4,3 0,0
21.02.2017 01:00:00 11,0 9,3 - - 9 5 - - W 1018,5 24 0,0
21.02.2017 00:00:00 11,7 9,2 - - 13 7 - - WSW 1018,7 30 0,0
20.02.2017 23:00:00 11,9 9,4 - - 15 8 - - WSW 1018,8 35 0,0
20.02.2017 22:00:00 11,9 9,5 - - 9 5 - - WSW 1019,0 50 0,0
20.02.2017 21:00:00 11,9 9,8 - - 8 4 - - WSW 1019,2 40 0,0
20.02.2017 20:00:00 12,0 9,8 - - 11 6 - - W 1019,1 40 0,0
20.02.2017 19:00:00 12,0 10,0 - - 18 10 - - W 1019,1 30 0,0
20.02.2017 18:00:00 12,1 9,8 - - 18 10 - - W 1018,8 40 0,0
20.02.2017 17:00:00 13,2 10,2 - - 18 10 50 27 W 1018,4 35 0,0
20.02.2017 16:00:00 14,6 10,8 - - 26 14 50 27 W 1017,9 35 0,0
20.02.2017 15:00:00 14,8 10,6 - - 24 13 54 29 W 1017,6 35 0,0
20.02.2017 14:00:00 15,1 10,9 - - 18 10 - - W 1018,0 35 0,0
20.02.2017 13:00:00 14,1 11,0 - - 15 8 - - WSW 1018,6 35 0,0
20.02.2017 12:00:00 14,4 11,0 - - 18 10 - - WSW 1018,9 35 0,0
20.02.2017 11:00:00 13,5 11,1 - - 16 9 - - W 1019,4 30 0,0
20.02.2017 10:00:00 12,2 10,0 - - 21 11 - - W 1019,9 30 0,0
20.02.2017 09:00:00 12,2 10,1 7,0 7,2 13 7 - - W 1019,7 29 0,0
20.02.2017 08:00:00 11,3 9,5 - - 5 3 - - SSW 1020,0 35 0,0
20.02.2017 07:00:00 11,6 9,5 - - 8 4 - - WSW 1020,0 60 0,0
20.02.2017 06:00:00 12,0 10,1 - - 15 8 - - W 1019,6 40 0,0
20.02.2017 05:00:00 11,1 9,6 - - 5 3 - - WSW 1019,4 35 0,0
20.02.2017 04:00:00 11,5 9,9 - - 9 5 - - WSW 1019,5 30 0,0
20.02.2017 03:00:00 11,7 10,3 - - 9 5 - - WSW 1020,0 24 0,0
20.02.2017 02:00:00 11,8 10,2 - - 13 7 - - W 1020,7 28 0,0
20.02.2017 01:00:00 11,5 10,2 - - 8 4 - - W 1020,8 30 0,0
20.02.2017 00:00:00 11,3 9,9 - - 13 7 - - W 1021,4 35 0,0
19.02.2017 23:00:00 11,0 9,4 - - 11 6 - - W 1021,5 35 0,0
19.02.2017 22:00:00 10,8 8,9 - - 13 7 - - W 1021,3 40 0,0
19.02.2017 21:00:00 10,7 8,7 - - 13 7 - - W 1021,5 40 0,0
19.02.2017 20:00:00 10,7 8,7 - - 15 8 - - W 1021,3 50 0,0
19.02.2017 19:00:00 11,1 8,9 - - 9 5 - - WSW 1021,6 60 0,0
19.02.2017 18:00:00 10,7 8,5 - - 4 2 - - SW 1021,3 45 0,0
19.02.2017 17:00:00 11,3 8,6 - - 11 6 - - WSW 1021,2 45 0,0
19.02.2017 16:00:00 11,4 8,7 - - 9 5 - - WSW 1021,6 45 0,0
19.02.2017 15:00:00 11,7 8,6 - - 15 8 - - W 1021,7 40 0,0
19.02.2017 14:00:00 11,9 8,2 - - 16 9 - - W 1021,8 55 0,0
19.02.2017 13:00:00 11,4 7,6 - - 13 7 - - W 1022,0 40 0,0
19.02.2017 12:00:00 11,3 7,4 - - 15 8 - - W 1022,9 60 0,0
19.02.2017 11:00:00 11,2 7,3 - - 13 7 - - W 1023,0 45 0,0
19.02.2017 10:00:00 9,9 6,6 - - 21 11 - - W 1022,9 40 0,0
19.02.2017 09:00:00 9,1 6,0 6,7 7,0 9 5 - - WSW 1022,8 45 0,0
19.02.2017 08:00:00 8,7 5,6 - - 13 7 - - W 1022,4 45 0,0
19.02.2017 07:00:00 8,6 5,6 - - 16 9 - - W 1021,6 35 0,0
19.02.2017 06:00:00 8,0 5,4 - - 11 6 - - W 1021,7 35 0,0
19.02.2017 05:00:00 8,8 5,7 - - 9 5 - - WSW 1021,3 30 0,0
19.02.2017 04:00:00 8,8 5,2 - - 11 6 - - WSW 1021,7 40 0,0
19.02.2017 03:00:00 9,6 6,7 - - 11 6 - - W 1022,0 26 0,0
19.02.2017 02:00:00 10,0 7,0 - - 13 7 - - WSW 1022,0 30 0,0
19.02.2017 01:00:00 10,0 6,6 - - 8 4 - - WSW 1021,9 19 0,0
19.02.2017 00:00:00 10,0 6,8 - - 11 6 - - WSW 1022,7 17 0,0
18.02.2017 23:00:00 8,7 6,3 - - 4 2 - - SW 1022,6 6 0,0
18.02.2017 22:00:00 8,3 6,9 - - 8 4 - - SW 1023,2 6 0,0
18.02.2017 21:00:00 8,0 6,8 - - 5 3 - - W 1023,2 5 0,0
18.02.2017 20:00:00 7,3 6,5 - - 2 1 - - S 1023,0 4,0 0,0
18.02.2017 19:00:00 7,1 6,0 - - 4 2 - - WSW 1023,2 4,9 0,0
18.02.2017 18:00:00 7,6 6,1 - - 4 2 - - S 1022,4 6 0,0
18.02.2017 17:00:00 9,2 6,4 - - 8 4 - - SSE 1022,5 8 0,0
18.02.2017 16:00:00 10,6 6,8 - - 9 5 - - SSE 1022,6 9 0,0
18.02.2017 15:00:00 10,5 7,8 - - 5 3 - - S 1022,9 9 0,0
18.02.2017 14:00:00 10,4 7,4 - - 8 4 - - SSW 1023,4 8 0,0
18.02.2017 13:00:00 10,5 7,7 - - 5 3 - - S 1023,6 10 0,0
18.02.2017 12:00:00 10,4 7,9 - - 8 4 - - SSE 1024,7 11 0,0
18.02.2017 11:00:00 8,1 6,9 - - 5 3 - - S 1025,1 8 0,0
18.02.2017 10:00:00 6,8 6,1 - - 4 2 - - S 1025,2 6 0,0
18.02.2017 09:00:00 6,3 6,0 6,2 7,0 8 4 - - S 1024,8 5 0,0
18.02.2017 08:00:00 5,7 5,4 - - 9 5 - - S 1024,5 3,9 0,0
18.02.2017 07:00:00 5,8 5,2 - - 5 3 - - SSE 1024,2 6 0,0
18.02.2017 06:00:00 6,3 5,6 - - 5 3 - - SSE 1024,2 8 0,0
18.02.2017 05:00:00 6,5 5,9 - - 5 3 - - S 1024,4 6 0,0
18.02.2017 04:00:00 6,7 6,0 - - 5 3 - - SSW 1024,5 7 0,0
18.02.2017 03:00:00 7,0 6,2 - - 8 4 - - S 1024,7 7 0,0
18.02.2017 02:00:00 7,2 6,5 - - 8 4 - - SSE 1025,1 5 0,0
18.02.2017 01:00:00 7,5 6,6 - - 4 2 - - S 1025,5 6 0,0
18.02.2017 00:00:00 7,8 6,8 - - 4 2 - - S 1025,7 6 0,0
17.02.2017 23:00:00 7,7 6,8 - - 2 1 - - SSE 1026,0 7 0,0
17.02.2017 22:00:00 7,0 6,8 - - 2 1 - - SW 1026,2 7 0,0
17.02.2017 21:00:00 4,8 3,9 - - 5 3 - - ESE 1026,2 7 0,0
17.02.2017 20:00:00 5,3 3,8 - - 4 2 - - ESE 1026,3 10 0,0
17.02.2017 19:00:00 6,9 5,0 - - 4 2 - - SE 1026,4 12 0,0
17.02.2017 18:00:00 8,0 5,8 - - 4 2 - - SSE 1026,2 15 0,0
17.02.2017 17:00:00 8,8 6,1 - - 4 2 - - SSE 1026,2 15 0,0
17.02.2017 16:00:00 9,6 6,4 - - 5 3 - - S 1026,5 17 0,0
17.02.2017 15:00:00 10,5 6,3 - - 4 2 - - SSW 1026,8 15 0,0
17.02.2017 14:00:00 12,5 6,5 - - 5 3 - - SSE 1027,1 26 0,0
17.02.2017 13:00:00 12,3 6,8 - - 5 3 - - S 1027,6 21 0,0
17.02.2017 12:00:00 10,8 6,6 - - 5 3 - - S 1028,3 18 0,0
17.02.2017 11:00:00 9,6 7,4 - - 4 2 - - SSE 1028,5 9 0,0
17.02.2017 10:00:00 8,4 6,8 - - 2 1 - - SSE 1028,3 9 0,0
17.02.2017 09:00:00 7,1 6,1 5,9 7,0 2 1 - - E 1028,3 8 0,0
17.02.2017 08:00:00 6,4 5,6 - - 5 3 - - NE 1028,1 8 0,0
17.02.2017 07:00:00 5,8 4,9 - - 2 1 - - ESE 1027,6 11 0,0
17.02.2017 06:00:00 6,2 5,2 - - 2 1 - - SE 1027,6 15 0,0
17.02.2017 05:00:00 6,6 5,2 - - 5 3 - - E 1027,7 15 0,0
17.02.2017 04:00:00 7,2 5,3 - - 2 1 - - WSW 1027,8 19 0,0
17.02.2017 03:00:00 7,9 5,6 - - 4 2 - - WSW 1027,8 25 0,0
17.02.2017 02:00:00 8,2 5,8 - - 9 5 - - W 1028,0 27 0,0
17.02.2017 01:00:00 8,2 5,9 - - 9 5 - - WSW 1028,0 35 0,0
17.02.2017 00:00:00 7,9 5,8 - - 5 3 - - SW 1028,2 30 0,0
16.02.2017 23:00:00 8,4 5,9 - - 9 5 - - WSW 1028,5 21 0,0
16.02.2017 22:00:00 8,1 5,2 - - 9 5 - - WSW 1028,3 45 0,0
16.02.2017 21:00:00 8,2 5,0 - - 5 3 - - WSW 1028,6 40 0,0
16.02.2017 20:00:00 9,0 5,4 - - 9 5 - - WSW 1028,5 40 0,0
16.02.2017 19:00:00 9,3 5,5 - - 9 5 - - SW 1028,4 40 0,0
16.02.2017 18:00:00 9,5 5,2 - - 11 6 - - WSW 1028,2 45 0,0
16.02.2017 17:00:00 9,9 4,6 - - 13 7 - - W 1028,0 45 0,0
16.02.2017 16:00:00 10,3 4,5 - - 13 7 - - WSW 1027,9 55 0,0
16.02.2017 15:00:00 10,9 4,9 - - 11 6 - - WSW 1027,8 35 0,0
16.02.2017 14:00:00 11,1 5,6 - - 9 5 - - SW 1028,0 35 0,0
16.02.2017 13:00:00 12,1 5,5 - - 15 8 - - W 1028,6 35 0,0
16.02.2017 12:00:00 10,9 5,2 - - 16 9 - - WSW 1029,3 30 0,0
16.02.2017 11:00:00 8,6 5,8 - - 4 2 - - SSW 1029,9 24 0,0
16.02.2017 10:00:00 7,5 5,5 - - 4 2 - - SSW 1029,8 26 0,0
16.02.2017 09:00:00 6,5 5,6 5,7 7,0 0 0 - - N 1029,7 25 0,0
16.02.2017 08:00:00 1,9 1,5 - - 2 1 - - SE 1029,7 16 0,0
16.02.2017 07:00:00 2,8 1,5 - - 2 1 - - WNW 1029,2 14 0,0
16.02.2017 06:00:00 6,3 4,5 - - 9 5 - - WSW 1029,1 23 0,0
16.02.2017 05:00:00 6,6 4,6 - - 11 6 - - WSW 1029,1 21 0,0
16.02.2017 04:00:00 7,8 4,5 - - 9 5 - - WSW 1029,0 24 0,0
16.02.2017 03:00:00 7,5 4,4 - - 9 5 - - W 1029,1 23 0,0
16.02.2017 02:00:00 8,1 4,7 - - 11 6 - - WSW 1028,9 23 0,0
16.02.2017 01:00:00 8,1 5,1 - - 11 6 - - WSW 1028,4 22 0,0
16.02.2017 00:00:00 8,9 5,8 - - 11 6 - - WSW 1028,1 23 0,0
15.02.2017 23:00:00 9,4 7,2 - - 13 7 - - W 1027,9 24 0,0
15.02.2017 22:00:00 8,3 7,2 - - 4 2 - - WSW 1027,7 25 0,0
15.02.2017 21:00:00 8,1 6,9 - - 2 1 - - WNW 1027,4 21 0,0
15.02.2017 20:00:00 8,4 6,6 - - 4 2 - - SW 1027,0 20 0,0
15.02.2017 19:00:00 7,0 6,0 - - 2 1 - - SSW 1026,8 29 0,0
15.02.2017 18:00:00 7,1 6,0 - - 5 3 - - SW 1026,6 30 0,0
15.02.2017 17:00:00 8,8 7,8 - - 2 1 - - SSW 1026,0 29 0,0
15.02.2017 16:00:00 9,1 8,3 - - 2 1 - - SW 1025,7 16 0,2
15.02.2017 15:00:00 9,3 8,8 - - 2 1 - - SSW 1025,7 7 0,2
15.02.2017 14:00:00 9,4 8,6 - - 0 0 - - N 1025,6 4,5 0,4

tt = temperature
td = dewpoint
tt -20cm = temperature -20cm
tt -100cm = temperature -100cm
ff = wind speed
fx = gusts
dd = wind direction
ppp = reduced air pressure
vv = visibility
rr = precipitation

Next stations